Погода в Левобережном

Россия / Чеченская Республика     43°34′18″N   45°37′55″E
темп.,
°C
ветер,
м/с
пор.,
м/с
влажн.,
%
обл.,
%
осадки,
мм/ч
давл.,
гПа
погр.,
м
8 марта, пн
пн800:000вюв364923 0.0 1022253
03:00−2в376023 0.0 1022236
06:00−2всв116424 0.0 102232
09:00+2всв235313 0.0 1020529
12:00+5в454381 0.0 10181072
15:00+6всв334291 0.0 10171356
18:00+4всв4465100 0.0 1018708
21:00+2в2294100 0.2 1019197
9 марта, вт
вт900:00+2св1191100 0.3 1018201
03:00+1юв119296 0.3 101832
06:000ююз119187 0.0 101723
09:00+4з226382 0.0 1017499
12:00+7св22424 0.0 10161382
15:00+9св213729 0.0 10151665
18:00+7св224417 0.0 1017108
21:00+5ююв004934 0.0 101927
10 марта, ср
ср1000:00+3ссз378998 0.1 1020493
03:00+2сз359499 1.1 1022377
06:00+1сз4697100 1.3 1024278
09:00+3сз465598 1.8 1025702
12:00+5сз454592 0.0 10231359
15:00+6с334295 0.0 10221506
18:00+4св3547100 0.0 1023524
21:00+2в6950100 0.0 1022661
11 марта, чт
чт1100:00+1в5106399 0.0 1020573
03:00+1всв61064100 0.0 1020848
06:00−1всв71189100 0.3 1019707
09:00−1всв91383100 1.6 1019913
12:000всв91385100 1.3 10171016
15:00−1св101391100 3.3 1017991
18:00−4всв71195100 2.8 1020781
21:00−5св61095100 5.1 1022628
12 марта, пт
пт1200:00−5св5996100 1.4 1023611
03:00−6св5896100 3.0 1024606
06:00−6св4696100 1.6 1027483
09:00−6св4693100 2.4 1030556
12:00−4св3476100 0.1 1029789
15:00−4св3373100 0.1 1029871
18:00−8всв227889 0.0 103121
21:00−10вюв349046 0.0 103256